Location: Peebles
(55.6412°N, 3.1714°W)
Time: 16:53:18
(UTC+01:00)

USA 281 - Pass Details

Date: 02 February 2022
Orbit: 1070 x 1089 km, 106.0° (Epoch: 25 March)

Event Time Altitude Azimuth Distance (km) Brightness Sun altitude
Rises 04:30:31 0° 32° (NNE) 3,905 6.8 -30.0°
Reaches altitude 10° 04:33:15 10° 24° (NNE) 2,948 5.9 -29.7°
Enters shadow 04:38:32 34° 332° (NNW) 1,719 4.1 -28.9°
